Location: Kingston, Ontario, Canada
(44.2796°N, 76.5445°W)
Time: 18:53:56
(UTC-04:00)

ISS - Visible Passes

Search period start: 27 July 2021 00:00
Search period end: 06 August 2021 00:00
Orbit: 419 x 421 km, 51.6° (Epoch: 27 July)

Date Brightness Start Highest point End Pass type
(mag) Time Alt. Az. Time Alt. Az. Time Alt. Az.
27 Jul -0.8 00:11:46 10° W 00:11:55 11° W 00:11:55 11° W visible
27 Jul -2.7 21:47:18 10° NW 21:50:31 40° NNE 21:53:14 13° E visible
27 Jul -2.1 23:24:11 10° WNW 23:26:11 27° W 23:26:11 27° W visible
28 Jul -3.7 22:36:46 10° WNW 22:40:06 61° SW 22:40:29 55° S visible
29 Jul -3.8 21:49:27 10° WNW 21:52:50 85° NNE 21:54:51 22° ESE visible
29 Jul -1.0 23:27:21 10° W 23:27:49 12° WSW 23:27:49 12° WSW visible
30 Jul -3.3 21:02:11 10° NW 21:05:31 57° NNE 21:08:51 10° ESE visible
30 Jul -2.1 22:39:24 10° W 22:42:08 23° SW 22:42:14 23° SW visible
31 Jul -2.8 21:51:50 10° WNW 21:54:59 36° SW 21:56:43 21° SSE visible
01 Aug -3.4 21:04:26 10° WNW 21:07:46 60° SW 21:11:06 10° SE visible
02 Aug -1.2 21:55:05 10° W 21:56:55 14° SW 21:58:45 10° SSW visible
03 Aug -1.8 21:07:08 10° W 21:09:50 22° SW 21:12:31 10° S visible
